Imperial, CA

3:34 AM PDT on March 30, 2017 (GMT -0700)
Imperial County

Weather History for KIPL - November, 2012

Change the Weather History Date:

Friday, November 23, 2012

  Actual Average Record
Temperature  
Mean Temperature 66 °F -  
Max Temperature 82 °F 74 °F 89 °F (1949)
Min Temperature 51 °F 46 °F 34 °F (2003)
Cooling Degree Days 2    
Growing Degree Days 16 (Base 50)    
Moisture  
Dew Point 37 °F    
Average Humidity 39    
Maximum Humidity 59    
Minimum Humidity 15    
Precipitation  
Precipitation 0.00 in - - ()
Sea Level Pressure  
Sea Level Pressure 30.10 in    
Wind  
Wind Speed 4 mph (West)    
Max Wind Speed 7 mph    
Max Gust Speed -    
Visibility 8 miles    
Events      
Averages and records for this station are not official NWS values.
T = Trace of Precipitation, MM = Missing Value Source: NWS Daily Summary

Daily Weather History Graph

Daily Weather History Graph

Search for Another Location

Airport or City:

Trip Planner

Search our weather history database for the weather conditions in past years. The results will help you decide how hot, cold, wet, or windy it might be!

Date:

Astronomy

Nov. 23, 2012 Rise Set
Actual Time 6:20 AM PST 4:37 PM PST
Civil Twilight 5:53 AM PST 5:03 PM PST
Nautical Twilight 5:23 AM PST 5:34 PM PST
Astronomical Twilight 4:53 AM PST 6:03 PM PST
Moon 1:43 PM PST (11/23) 1:55 AM PST (11/23)
Length of Visible Light 11h 10m
Length of Day
10h 16m
Waxing Gibbous, 80% of the Moon is Illuminated
Nov 23
Waxing Gibbous
Nov 28
Full
Dec 6
Last Quarter
Dec 13
New
Dec 19
First Quarter

Hourly Weather History & Observations

Time (PST) Temp. Dew Point Humidity Pressure Visibility Wind Dir Wind Speed Gust Speed Precip Events Conditions
12:53 AM 52.0 °F 37.9 °F 59% 30.09 in 7.0 mi WSW 4.6 mph - N/A   Clear
1:53 AM 55.0 °F 36.0 °F 49% 30.09 in 5.0 mi WSW 4.6 mph - N/A   Haze
2:53 AM 53.1 °F 36.0 °F 52% 30.09 in 5.0 mi West 4.6 mph - N/A   Haze
3:53 AM 53.1 °F 36.0 °F 52% 30.09 in 9.0 mi West 4.6 mph - N/A   Clear
4:53 AM 51.8 °F 35.6 °F 54% 30.10 in 5.0 mi West 6.9 mph - N/A   Haze
5:53 AM 53.1 °F 36.0 °F 52% 30.11 in 7.0 mi West 6.9 mph - N/A   Clear
6:53 AM 53.1 °F 37.0 °F 55% 30.14 in 6.0 mi WSW 5.8 mph - N/A   Haze
7:53 AM 60.1 °F 42.1 °F 51% 30.16 in 6.0 mi Calm Calm - N/A   Haze
8:53 AM 66.0 °F 44.1 °F 45% 30.18 in 5.0 mi Calm Calm - N/A   Haze
9:53 AM 73.9 °F 42.1 °F 32% 30.17 in 4.0 mi Calm Calm - N/A   Haze
10:53 AM 79.0 °F 37.9 °F 23% 30.16 in 10.0 mi Variable 3.5 mph - N/A   Clear
11:53 AM 80.1 °F 37.0 °F 21% 30.12 in 5.0 mi Variable 4.6 mph - N/A   Haze
12:53 PM 82.0 °F 33.1 °F 17% 30.10 in 10.0 mi Variable 4.6 mph - N/A   Clear
1:53 PM 82.9 °F 32.0 °F 16% 30.08 in 10.0 mi Variable 3.5 mph - N/A   Clear
2:53 PM 82.9 °F 30.9 °F 15% 30.07 in 10.0 mi NNW 3.5 mph - N/A   Clear
3:53 PM 81.0 °F 34.0 °F 18% 30.06 in 10.0 mi NW 3.5 mph - N/A   Clear
4:53 PM 73.0 °F 37.0 °F 27% 30.05 in 10.0 mi Calm Calm - N/A   Clear
5:53 PM 66.0 °F 39.0 °F 37% 30.06 in 10.0 mi WSW 3.5 mph - N/A   Clear
6:53 PM 64.0 °F 39.0 °F 40% 30.07 in 10.0 mi West 5.8 mph - N/A   Clear
7:53 PM 61.0 °F 37.9 °F 42% 30.07 in 10.0 mi West 4.6 mph - N/A   Clear
8:53 PM 60.1 °F 35.1 °F 39% 30.08 in 10.0 mi West 6.9 mph - N/A   Clear
9:53 PM 59.0 °F 34.0 °F 39% 30.08 in 10.0 mi West 3.5 mph - N/A   Clear
10:53 PM 55.9 °F 35.1 °F 45% 30.08 in 10.0 mi Calm Calm - N/A   Clear
11:53 PM 55.9 °F 34.0 °F 44% 30.07 in 10.0 mi WSW 4.6 mph - N/A   Clear